Flag for Germany Weather past 2 weeks in Merzig, Saarland, Germany

Now
74 °F

Clear.


Feels Like: 77 °F
Forecast: 52 / 86 °F
Wind: 2 mph from Southeast

Location: Trier-Petrisberg

Current Time: Aug 4, 2015 at 2:22:07 AM

Latest Report: Aug 4, 2015 at 2:00 AM


Visibility: 22 mi

Pressure: 29.90 "Hg

Humidity: 51%

Dew point: 55 °F

Location of MerzigLocation

Historic Weather in Merzig — Graph

°F

Merzig temperature yesterday

Maximum temperature yesterday: 93 °F (at 6:00 PM)
Minimum temperature yesterday: 58 °F (at 7:00 AM)
Average temperature yesterday: 77 °F

Past Weeks' High & Low Weather Summary

 TemperatureHumidityPressure
High93 °F (Aug 3, 6:00 PM)99% (Jul 25, 1:00 AM)30.15 "Hg (Jul 25, 1:00 AM)
Low46 °F (Jul 31, 5:00 AM)23% (Aug 1, 6:00 PM)29.62 "Hg (Jul 27, 5:00 AM)
Average67 °F63%29.92 "Hg
* Reported Jul 20 1:00 AM — Aug 4 1:00 AM, Merzig, Weather by CustomWeather, © 2015

Note: Actual official high and low records may vary slightly from our data, if they occured in-between our weather recording intervals... More about our weather records

Advertising

Merzig weather history for previous 24 hours

 ConditionsComfort  
Time TempWeatherWind HumidityBarometerVisibility
1:00 AM
Tue, Aug 4
76 °FClear.2 mph48%29.91 "Hg25 mi
11:00 PM
Mon, Aug 3
77 °FClear.1 mph44%29.91 "Hg28 mi
10:00 PM79 °FClear.2 mph41%29.91 "Hg25 mi
9:00 PM82 °FSunny.2 mph35%29.90 "Hg28 mi
8:00 PM89 °FSunny.3 mph25%29.88 "Hg31 mi
7:00 PM92 °FSunny.3 mph23%29.89 "Hg28 mi
6:00 PM93 °FSunny.5 mph24%29.90 "Hg28 mi
5:00 PM90 °FSunny.5 mph24%29.92 "Hg25 mi
4:00 PM93 °FSunny.7 mph24%29.93 "Hg19 mi
3:00 PM90 °FSunny.6 mph24%29.95 "Hg18 mi
2:00 PM91 °FSunny.5 mph26%29.95 "Hg22 mi
1:00 PM89 °FSunny.6 mph26%29.97 "Hg19 mi
12:00 PM82 °FSunny.2 mph38%29.99 "Hg17 mi
11:00 AM77 °FSunny.1 mph43%30.01 "Hg19 mi
10:00 AM71 °FSunny.2 mph53%30.01 "Hg17 mi
9:00 AM66 °FSunny.1 mph60%30.02 "Hg18 mi
8:00 AM60 °FSunny.1 mph72%30.03 "Hg19 mi
7:00 AM58 °FSunny.2 mph77%30.03 "Hg17 mi
6:00 AM58 °FClear.2 mph75%30.02 "Hg17 mi
5:00 AM61 °FClear.2 mph66%30.02 "Hg19 mi
4:00 AM63 °FClear.2 mph62%30.02 "Hg22 mi
3:00 AM64 °FClear.2 mph61%30.02 "Hg22 mi
2:00 AM67 °FClear.3 mph51%30.02 "Hg28 mi
Weather by CustomWeather, © 2015

See weather overviewHow to use our weather pages